TimeCST,TemperatureF,Dew PointF,Humidity,Sea Level PressureIn,VisibilityMPH,Wind Direction,Wind SpeedMPH,Gust SpeedMPH,PrecipitationIn,Events,Conditions,WindDirDegrees,DateUTC
12:55 AM,27.5,23.0,83,30.00,10.0,North,5.8,-,N/A,,Mostly Cloudy,360,2012-12-08 06:55:00
1:55 AM,25.0,21.4,86,30.01,10.0,Calm,Calm,-,N/A,,Overcast,0,2012-12-08 07:55:00
2:55 AM,23.7,20.7,88,30.01,10.0,NW,4.6,-,N/A,,Overcast,310,2012-12-08 08:55:00
3:55 AM,25.0,21.4,86,30.01,10.0,Calm,Calm,-,N/A,,Mostly Cloudy,0,2012-12-08 09:55:00
4:55 AM,20.8,18.3,90,30.02,10.0,Calm,Calm,-,N/A,,Overcast,0,2012-12-08 10:55:00
5:55 AM,24.1,21.2,89,30.04,10.0,Calm,Calm,-,N/A,,Overcast,0,2012-12-08 11:55:00
6:55 AM,25.3,22.6,89,30.06,10.0,NW,4.6,-,N/A,,Overcast,320,2012-12-08 12:55:00
7:55 AM,27.1,24.1,88,30.06,10.0,NNW,3.5,-,N/A,,Overcast,330,2012-12-08 13:55:00
8:55 AM,28.4,24.6,86,30.09,10.0,NNW,3.5,-,N/A,,Overcast,340,2012-12-08 14:55:00
9:55 AM,30.0,24.6,80,30.09,10.0,NE,3.5,-,N/A,,Overcast,50,2012-12-08 15:55:00
10:55 AM,33.1,24.6,71,30.08,10.0,Calm,Calm,-,N/A,,Mostly Cloudy,0,2012-12-08 16:55:00
11:55 AM,35.2,23.7,63,30.06,10.0,East,3.5,-,N/A,,Clear,80,2012-12-08 17:55:00
12:55 PM,36.7,23.0,58,30.05,10.0,ESE,3.5,-,N/A,,Partly Cloudy,120,2012-12-08 18:55:00
1:55 PM,36.5,22.5,57,30.07,10.0,Calm,Calm,-,N/A,,Mostly Cloudy,0,2012-12-08 19:55:00
2:55 PM,36.5,22.1,56,30.07,10.0,Calm,Calm,-,N/A,,Clear,0,2012-12-08 20:55:00
3:55 PM,32.9,21.0,62,30.09,10.0,ESE,5.8,-,N/A,,Clear,120,2012-12-08 21:55:00
4:55 PM,29.5,21.0,71,30.11,10.0,Calm,Calm,-,N/A,,Clear,0,2012-12-08 22:55:00
5:55 PM,25.0,20.5,83,30.11,10.0,ESE,5.8,-,N/A,,Clear,110,2012-12-08 23:55:00
6:55 PM,25.7,21.0,82,30.09,10.0,East,6.9,-,N/A,,Clear,90,2012-12-09 00:55:00
7:55 PM,27.3,21.9,80,30.11,10.0,ESE,9.2,-,N/A,,Clear,120,2012-12-09 01:55:00
8:55 PM,29.5,22.8,76,30.11,10.0,ESE,9.2,-,N/A,,Clear,120,2012-12-09 02:55:00
9:55 PM,28.9,23.4,80,30.13,10.0,ESE,4.6,-,N/A,,Clear,110,2012-12-09 03:55:00
10:55 PM,29.3,23.9,80,30.12,10.0,ESE,8.1,-,N/A,,Mostly Cloudy,110,2012-12-09 04:55:00
11:08 PM,30.2,24.8,80,30.12,10.0,ESE,9.2,-,N/A,,Overcast,110,2012-12-09 05:08:00
11:30 PM,30.2,24.8,80,30.12,10.0,ESE,8.1,-,N/A,,Overcast,110,2012-12-09 05:30:00
11:55 PM,31.3,24.8,77,30.12,10.0,ESE,11.5,-,N/A,,Overcast,110,2012-12-09 05:55:00